Regional Weather Roundup
Issued by NWS

Home | Current Version | Previous Version | Graphics & Text | Print | Product List | Glossary On
Versions: 1 2 3 4 5 6 7 8 9 10 11 12 13 14 15 16 17 18 19 20 21 22 23 24 25 26 27 28 29 30 31 32 33 34 35 36 37 38 39 40 41 42 43 44 45 46 47 48 49 50
000
ASUS43 KMPX 231310
RWRMN
WEATHER ROUNDUP FOR MINNESOTA
NATIONAL WEATHER SERVICE TWIN CITIES/CHANHASSEN MN
700 AM CST FRI FEB 23 2018


NOTE: "FAIR" INDICATES FEW OR NO CLOUDS BELOW 12,000 FEET WITH NO
SIGNIFICANT WEATHER AND/OR OBSTRUCTIONS TO VISIBILITY. N/A MEANS
CURRENT SKY AND/OR WEATHER CONDITIONS ARE NOT AVAILABLE.

MNZ060>063-068>070-231400-
   Twin Cities Metro

CITY           SKY/WX    TMP DP  RH WIND       PRES   REMARKS
TWIN CITIES    CLOUDY    27  26  96 W10       30.07R WCI  17
ST PAUL        CLOUDY    28  26  92 W8        30.08R WCI  20
CRYSTAL        CLOUDY    26  23  88 W7        30.05R FOG     WCI  18
BLAINE         CLOUDY    28  28 100 W6        30.05R FOG     WCI  22
LAKEVILLE      CLOUDY    27  27 100 W9        30.06R WCI  17
EDEN PRAIRIE   CLOUDY    27  24  89 SW7       30.06R WCI  19
SOUTH ST PAUL  MOCLDY    28  28  97 W7        30.06R WCI  21
LAKE ELMO      CLOUDY    28  28 100 SW5       30.06R FOG     WCI  23
$$
MNZ001>005-007-008-013>017-022>024-027-028-231400-
   Northwest Minnesota

CITY           SKY/WX    TMP DP  RH WIND       PRES   REMARKS
BEMIDJI        LGT SNOW  19  17  93 NW3       30.05S
HALLOCK        MOCLDY     9   3  78 NW8       30.15R WCI  -4
ROSEAU         MOCLDY    12   7  79 CALM      30.10F
WARROAD        FAIR      12   7  79 CALM      30.09F
THIEF RVR FALL LGT SNOW  16  14  92 W5        30.12S FOG     WCI   9
CROOKSTON      LGT SNOW  14  10  85 NW13      30.15R WCI   0
FOSSTON        LGT SNOW  16  12  86 NW3       30.09S
DETROIT LAKES  LGT SNOW  21  19  93 NW6       30.09S WCI  14
MOORHEAD       MIX PCPN  18  16  93 NW8       30.14S WCI   7
PARK RAPIDS    LGT SNOW  20  16  84 NW8       30.05R FOG     WCI  10
MAHNOMEN       LGT SNOW  17  15  92 NW7       30.09S WCI   8
$$
MNZ006-009>011-018-025>026-231400-
   North Central Minnesota

CITY           SKY/WX    TMP DP  RH WIND       PRES   REMARKS
BAUDETTE       LGT SNOW  16  14  92 CALM      30.07S FOG
FLAG ISLAND    CLOUDY    10   5  79 CALM      30.09S
INTL FALLS     LGT SNOW  20  17  88 N3        30.06F FOG
WASKISH        RAIN      19  18  93 CALM      30.07F
BIG FORK       LGT SNOW  21  18  86 CALM      30.04F
LONGVILLE      LGT SNOW  19  18  93 CALM      30.04S
GRAND RAPIDS   SNOW      19  18  93 N3        30.04F VSB 1/2
CRANE LAKE     LGT SNOW  19  18  93 CALM      30.07F VSB 3/4
ORR            LGT SNOW  19  16  86 CALM      30.02F
COOK           LGT SNOW  19  18  93 CALM      30.04S VSB 3/4
WALKER         LGT SNOW  19  17  93 NW3       30.04F
$$
MNZ012-019>021-037-231400-
   Northeast Minnesota

CITY           SKY/WX    TMP DP  RH WIND       PRES   REMARKS
DULUTH         LGT SNOW  25  22  88 N3        30.00S VSB 1
ELY            LGT SNOW  18  18 100 CALM      30.02S
HIBBING        LGT SNOW  20  18  92 N3        30.02S VSB 3/4
EVELETH        LGT SNOW  21  19  93 CALM      30.03S
DULUTH HARBOR  LGT SNOW  25  25 100 CALM      30.06S
TWO HARBORS    LGT SNOW  27  21  80 CALM      30.00F
SILVER BAY     LGT SNOW  27  25  93 CALM      30.00F
GRAND MARAIS     N/A     27  24  89 NE6       30.05F WCI  20
G MARAIS ARPRT LGT SNOW  19  16  86 CALM      29.98F
$$
MNZ029>031-032-039>041-046>048-054>057-064-231400-
   West Central Minnesota

CITY           SKY/WX    TMP DP  RH WIND       PRES   REMARKS
FERGUS FALLS   FLURRIES  18  16  93 NW6       30.11R WCI   9
WHEATON        FLURRIES  18  16  93 W6        30.16R WCI   9
MORRIS         CLOUDY    19  18  93 NW10      30.10R WCI   8
ALEXANDRIA     CLOUDY    19  17  92 NW6       30.06S WCI  11
ELBOW LAKE     FLURRIES  17  16  95 W5        30.10S WCI  10
WADENA         LGT SNOW  19  18  93 NW6       30.05F WCI  11
GLENWOOD       FAIR      18  18 100 W7        30.07S WCI   8
APPLETON       CLOUDY     7   3  85 W8        30.13R FOG     WCI  -6
BENSON         CLOUDY    12  10  92 NW8       30.12R WCI   1
ORTONVILLE     CLOUDY    16  12  86 NW8       30.13R FOG     WCI   5
MADISON        PTCLDY    10   9  92 W7        30.14R FOG     WCI   0
WILLMAR        CLOUDY    21  19  93 W9        30.11R WCI  11
$$
MNZ033>034-036-042>043-049>051-058-059-231400-
   Central Minnesota

CITY           SKY/WX    TMP DP  RH WIND       PRES   REMARKS
ST CLOUD       CLOUDY    22  21  96 W7        30.05R WCI  13
SAUK CENTRE    CLOUDY    20  18  92 NW7       30.06S WCI  11
PAYNESVILLE    CLOUDY    23  22  98 W9        30.06S WCI  13
AITKIN         LGT SNOW  19  18  93 CALM      30.02F
PINE RIVER     LGT SNOW  19  16  86 CALM      30.08S
BRAINERD       LGT SNOW  21  17  84 NW3       30.04S FOG
STAPLES        LGT SNOW  18  18 100 W3        30.06R
LONG PRAIRIE   FAIR      19  18  93 W5        30.06R WCI  13
LITTLE FALLS   CLOUDY    23  19  86 NW3       30.06R
LITCHFIELD     CLOUDY    25  25 100 W10       30.07S WCI  15
BUFFALO        CLOUDY    24  22  94 W6        30.07R WCI  17
MAPLE LAKE     CLOUDY    25  24  96 W6        30.06S WCI  18
HUTCHINSON     CLOUDY    24  22  93 W17       30.09R WCI  10
$$
MNZ037-044-045-052-053-231400-
   East Central Minnesota

CITY           SKY/WX    TMP DP  RH WIND       PRES   REMARKS
PRINCETON      CLOUDY    25  23  93 CALM      30.04S
CAMBRIDGE      FLURRIES  27  21  80 CALM      30.04S
RUSH CITY      LGT SNOW  24  23  94 CALM      30.04R
MOOSE LAKE     FLURRIES  23  21  93 CALM      30.00F
HINCKLEY       CLOUDY    25  23  93 CALM      30.02S
CLOQUET        LGT SNOW  23  21  93 CALM      30.01F
MCGREGOR       CLOUDY    21  21 100 NW3       30.02F VSB 1
$$
MNZ071>073-080-081-089-090-097-098-231400-
   Southwest Minnesota

CITY           SKY/WX    TMP DP  RH WIND       PRES   REMARKS
MONTEVIDEO     CLOUDY    16  16 100 NW5       30.12R FOG     WCI   9
GRANITE FALLS  MOCLDY    12  10  91 W10       30.14R FOG     WCI  -1
CANBY          CLOUDY    21  18  88 NW15      30.14R WCI   7
MARSHALL       CLEAR     12   9  87 W10       30.14R WCI  -1
REDWOOD FALLS  MOCLDY    16  14  92 W13       30.11R FOG     WCI   2
OLIVIA         CLOUDY    21  19  93 NW13      30.09R FOG     WCI   9
PIPESTONE      CLOUDY    19  18  93 NW12      30.13R WCI   7
WORTHINGTON    MOCLDY    18  16  92 W17       30.13R WCI   3
JACKSON        PTCLDY    18  14  86 W14       30.12R WCI   4
TRACY          CLEAR     19  17  93 W7        30.12R WCI   9
SLAYTON        CLOUDY    19  17  93 W12       30.12R WCI   6
$$
MNZ065>067-074>077-082>085-091>093-231400-
   South Central Minnesota

CITY           SKY/WX    TMP DP  RH WIND       PRES   REMARKS
MANKATO        FAIR      23  21  92 W15       30.09R WCI  10
NEW ULM        CLEAR     19  16  86 W12       30.11R WCI   7
ST JAMES       CLEAR     18  16  93 W15       30.13R WCI   3
FAIRMONT       CLEAR     19  16  88 W14       30.13R WCI   6
GLENCOE        CLOUDY    26  26 100 W13       30.07R WCI  14
FARIBAULT      CLOUDY    27  25  93 W8        30.07S WCI  18
OWATONNA       CLOUDY    27  25  93 W10       30.07S WCI  17
WASECA         CLOUDY    27  23  86 W15       30.10R WCI  15
ALBERT LEA     CLOUDY    27  23  86 W5        30.10R WCI  21
$$
MNZ078>079-086>088-094>096-231400-
   Southeast Minnesota

CITY           SKY/WX    TMP DP  RH WIND       PRES   REMARKS
ROCHESTER      CLOUDY    27  25  92 W13       30.05S WCI  16
RED WING       CLOUDY    30  27  86 W5        30.05S WCI  25
STANTON        CLOUDY    30  26  86 W10       30.06R WCI  21
DODGE CENTER   CLOUDY    27  25  93 W9        30.06R WCI  17
WINONA         CLOUDY    34  34 100 W9        30.05R WCI  26
AUSTIN         CLOUDY    27  25  93 W8        30.08R WCI  18
PRESTON        CLOUDY    29  27  90 W15       30.07R WCI  18
$$
ABBREVIATIONS USED IN REMARKS
   TC - TEMPERATURES IN CELSIUS
  WCI - WIND CHILL INDEX
   HX - HEAT INDEX
  VSB - VISIBILITY
$$




USA.gov is the U.S. government's official web portal to all federal, state and local government web resources and services.